Weather in Tishkovo

Russia / Moscow Oblast     56°05′21″N   37°44′17″E
В апреле 2022 года жителям России запретили посещать сайт meteo.paraplan.net по решению Генеральной прокуратуры. Аудитория сайта уменьшилась в 10 раз. Владельцы сайта не видят смысла в поддержке погодного сервера в таких условиях. Сайт будет закрыт в октябре.
temp.,
°C
wind,
m/s
gust,
m/s
humid.,
%
clouds,
%
prec.,
mm/h
press.,
hPa
HPBL,
m
3 october, mon
mon300:00+10ene61486100 0.3 1000460
03:00+11e61496100 2.7 997550
06:00+13e71595100 3.1 995848
09:00+14ese71693100 5.3 9931144
12:00+14se91788100 1.0 9931435
15:00+12s61179100 1.3 9961244
18:00+8sse81479100 0.1 10001274
21:00+8sse91881100 0.6 10011769
4 october, tue
tue400:00+10sse9177784 0.3 10031441
03:00+10sse81677100 0.4 10041489
06:00+9sse81576100 0.1 10051583
09:00+10sse81477100 0.1 10061292
12:00+10sse81574100 0.0 10071710
15:00+8sse61484100 1.6 10091322
18:00+9sse61379100 0.1 10091248
21:00+8s6118495 0.6 10091078
5 october, wed
wed500:00+7s3988100 0.7 10091199
03:00+7s5888100 1.9 10091159
06:00+7ssw4788100 0.7 1010936
09:00+7ssw3585100 0.9 1011936
12:00+6sw2590100 0.9 1011657
15:00+6w578392 1.6 1013766
18:00+6w268599 0.2 1014509
21:00+6w378887 0.7 1015772
6 october, thu
thu600:00+6w378997 0.1 1016511
03:00+4w259353 0.2 1016138
06:00+3wsw259326 0.0 1017103
09:00+5ssw2493100 0.3 1016194
12:00+6sse3795100 1.3 1016323
15:00+7s3797100 1.6 1015286
18:00+9sw31098100 0.7 1014392
21:00+9sw4139698 0.7 1013523
7 october, fri
fri700:00+10w51494100 0.1 1013593
03:00+10wnw5129118 0.1 1014634
06:00+9wnw5129097 0.0 1016728
09:00+9w51081100 0.1 10171168
12:00+10w6137993 0.0 10181319
15:00+12w712705 0.1 10181274
18:00+11w612745 0.0 1019817
21:00+9w513845 0.0 1020572